Weather in Varva

Ukraine / Chernihiv Region     50°29′58″N   32°43′20″E
temp.,
°C
wind,
m/s
gust,
m/s
humid.,
%
clouds,
%
prec.,
mm/h
press.,
hPa
HPBL,
m
13 june, sun
sun1300:00+15ssw338789 0.0 100925
03:00+14ssw359354 0.0 100874
06:00+14ssw35966 1.4 1007125
09:00+19ssw588235 2.5 1007397
12:00+22ssw69665 2.1 10071365
15:00+22ssw797288 3.9 10061504
18:00+19sw578487 3.5 1007665
21:00+15nw229444 6.0 100838
14 june, mon
mon1400:00+14n359594 0.4 1009118
03:00+13nne379582 1.3 1010195
06:00+13ne369710 0.1 1010178
09:00+18ese35868 0.3 1011430
12:00+22se34685 0.9 10121112
15:00+23ese456911 2.4 10131168
18:00+23ese24757 1.3 1013956
21:00+18ene22855 2.3 101419
15 june, tue
tue1500:00+16ene22915 0.2 101424
03:00+16ene22910 0.2 101421
06:00+16ne22904 0.0 101435
09:00+21ne34794 0.0 1014388
12:00+24nne44684 0.4 10131137
15:00+24ne346612 2.5 10121276
18:00+24nne347419 1.1 10111039
21:00+19nne338432 2.4 101132
16 june, wed
wed1600:00+18nne239193 1.3 101045
03:00+17nne369357 2.4 1011127
06:00+17nne499624 0.0 1011247
09:00+20ne568623 1.1 1012512
12:00+23nne567440 0.4 10121124
15:00+23nne677643 2.8 10121059
18:00+22nne598125 2.4 1013857
21:00+19n5128722 2.6 1013412
17 june, thu
thu1700:00+18nne6148894 0.0 1014445
03:00+17nne6149248 0.0 1014455
06:00+16ne7149217 0.0 1015509
09:00+19ne8128255 0.1 1016731
12:00+18ne61191100 0.6 1017662
15:00+21ne7117951 0.8 10171046
18:00+21ne7128219 1.4 1018949
21:00+18ne6138491 1.5 1018550